Location: �bnet
(46.9957°N, 8.4908°E)
Time: 00:11:18
(UTC+00:00)

SL-24 DEB - Pass Details

Date: 11 May 2021
Orbit: 667 x 697 km, 92.0° (Epoch: 18 June)

Event Time Altitude Azimuth Distance (km) Brightness Sun altitude
Exits shadow 21:05:35 36° 137° (SE) 1,062 4.7 -18.0°
Maximum altitude 21:07:10 54° 80° (E) 811 4.4 -18.1°
Drops below altitude 10° 21:11:41 10° 4° (N) 2,107 7.5 -18.6°
Sets 21:13:58 0° 360° (N) 3,028 8.6 -18.8°
